User: anonymous   Login
Location: Theydon Bois
(51.6750°N, 0.1050°E)
Time: 17:51:11
(UTC+01:00)
Language:

Cosmos 1818 - Orbit

View from above orbital plane
View from above orbital plane
View from above satellite
View from above satellite

Ground track
Ground track

The orbit data is extracted from the following two-line orbital elements,

1 17369U 87011A   17291.09138958 -.00000060  00000-0  15128-4 0  9994
2 17369  65.0094 109.0456 0012999 278.3504 221.9275 14.31427246656229
Epoch (UTC): 18 October 2017 02:11:36
Eccentricity: 0.0012999
inclination: 65.0094°
perigee height: 777 km
apogee height: 796 km
right ascension of ascending node: 109.0456°
argument of perigee: 278.3504°
revolutions per day: 14.31427246
mean anomaly at epoch: 221.9275°
orbit number at epoch: 65622

The dashed part of the orbit path shows where the satellite is in the earth's shadow,  

DLR